Lapse_Rate
6.2 6.2 6.2 6.0 5.9 5.9 6.2 5.9 5.9 6.0 6.2 6.2 6.5 6.7 6.8 6.7 6.6 6.5 6.4 6.4 6.4 6.5 6.5 7.0 7.4 7.2 7.1 7.2 7.2 7.2 7.0 6.8 6.8 7.1 7.9 7.9 7.5 7.4 7.3 7.2 7.1 6.8 6.5 6.6 6.7
6.3 6.2 6.2 6.2 6.2 5.9 6.3 6.1 6.0 6.1 6.3 6.3 6.6 6.9 6.9 6.7 6.7 6.4 6.6 6.7 6.6 6.6 6.5 6.6 7.0 6.9 7.0 7.0 6.8 6.8 6.7 6.3 6.4 6.9 7.1 7.6 7.6 7.4 7.3 7.1 6.9 6.7 6.4 6.3 6.5
6.4 6.4 6.2 6.3 6.3 6.0 6.3 6.2 6.1 6.2 6.4 6.4 6.7 6.9 6.9 6.7 6.6 6.4 6.5 6.6 6.7 6.8 6.6 6.6 6.6 6.9 7.1 7.2 7.0 6.9 7.2 7.1 6.8 6.9 7.0 7.0 7.5 7.4 7.2 6.8 6.6 6.5 6.3 6.1 6.1
6.4 6.5 6.4 6.4 6.4 6.2 6.2 6.4 6.2 6.3 6.5 6.5 6.9 6.9 6.9 6.7 6.6 6.5 6.6 6.4 6.5 6.5 6.6 6.5 6.6 7.0 7.3 7.2 7.1 7.0 7.1 7.3 7.4 7.3 7.0 7.2 7.2 7.1 7.0 6.6 6.5 6.4 6.3 6.1 5.9
6.6 6.5 6.5 6.5 6.5 6.3 6.3 6.5 6.2 6.4 6.5 6.6 7.0 6.9 6.9 6.7 6.7 6.5 6.6 6.4 6.3 6.3 6.3 6.6 6.8 7.4 7.4 7.3 7.3 7.1 6.9 7.3 7.6 7.4 7.3 6.9 7.2 7.0 6.7 6.4 6.4 6.4 6.5 6.2 5.8
6.9 6.7 6.6 6.5 6.5 6.4 6.4 6.6 6.4 6.6 6.7 6.9 7.1 7.1 7.0 6.7 6.8 6.5 6.6 6.4 6.4 6.4 6.6 6.8 6.9 7.0 6.8 7.2 7.4 7.3 7.2 7.0 7.6 7.5 7.2 7.0 7.6 7.2 6.9 6.5 6.5 6.6 6.6 6.1 6.0
7.1 6.9 6.7 6.6 6.6 6.4 6.5 6.8 6.6 6.7 6.8 7.1 7.2 7.1 7.0 6.8 6.8 6.5 6.5 6.3 6.3 6.5 6.6 6.7 6.8 6.6 6.8 7.1 7.3 7.2 7.0 6.6 7.2 7.3 7.2 7.3 7.2 7.2 7.1 6.8 6.6 6.6 6.7 6.4 6.1
7.2 7.1 6.9 6.7 6.6 6.4 6.5 6.8 6.8 6.8 6.9 7.2 7.1 7.2 7.0 6.9 6.8 6.7 6.4 6.2 6.5 6.5 6.8 6.7 6.6 6.8 6.9 6.9 6.8 7.1 7.1 7.1 7.2 7.0 7.0 7.2 7.1 7.1 7.1 7.0 6.9 6.5 6.8 6.8 6.6
7.3 7.2 7.0 6.8 6.8 6.6 6.6 6.9 6.9 6.8 7.0 7.2 7.1 7.1 7.0 6.9 6.9 6.6 6.1 6.2 6.0 6.3 6.5 6.8 6.8 6.9 6.8 6.9 7.1 7.3 7.1 7.2 7.2 7.1 7.0 7.0 7.1 7.1 7.1 7.0 7.0 6.7 6.6 6.7 7.0
7.3 7.3 7.1 6.9 6.9 6.7 6.6 6.9 6.9 6.9 7.2 7.3 7.2 6.9 6.9 7.0 6.8 6.7 6.2 6.5 6.4 6.4 6.6 6.8 6.8 6.9 6.9 6.9 6.8 7.0 7.2 7.3 7.2 7.2 7.0 6.8 7.0 7.1 7.2 7.1 7.0 6.8 6.6 6.6 6.6
7.2 7.4 7.2 7.1 7.0 6.7 6.7 7.0 6.9 7.0 7.3 7.3 7.4 7.2 6.9 6.9 6.8 6.6 6.6 6.7 6.5 6.3 6.4 6.9 7.1 7.6 7.1 6.8 6.9 7.1 7.3 7.5 7.6 7.3 7.1 7.3 7.3 7.3 7.1 6.9 6.8 6.8 6.7 6.6 6.8
7.2 7.4 7.4 7.1 7.0 6.7 6.7 6.9 7.0 7.4 7.5 7.5 7.4 7.4 7.1 7.1 7.1 6.8 6.7 6.7 6.6 6.5 6.5 7.0 7.1 7.4 7.7 7.2 7.4 7.6 7.9 8.1 7.8 8.0 7.8 7.7 7.3 7.4 7.4 7.2 7.0 6.7 6.8 6.6 6.8
7.1 7.3 7.4 7.1 7.0 6.7 6.7 7.1 7.2 7.4 7.5 7.6 7.6 7.4 7.1 7.1 7.2 6.9 7.1 7.1 6.8 6.7 6.9 7.4 7.5 7.6 7.6 7.3 7.6 8.1 8.1 8.3 8.0 8.2 8.0 7.9 8.2 8.1 7.8 7.7 7.5 7.2 7.0 6.9 6.9
7.0 7.1 7.4 7.2 7.0 6.7 6.8 7.2 7.3 7.4 7.4 7.8 7.7 7.5 7.4 7.2 7.0 7.2 7.2 6.8 7.1 7.5 7.6 7.4 7.5 7.6 7.6 7.7 7.8 8.1 8.2 8.4 8.1 8.1 7.6 7.7 8.0 8.2 8.3 8.3 8.1 7.9 7.6 7.7 7.7
6.8 7.0 7.3 7.2 6.9 6.8 7.1 7.2 7.3 7.3 6.8 8.0 7.9 7.6 7.6 7.7 7.1 7.4 7.5 7.0 7.2 7.3 7.3 7.9 7.8 7.9 8.1 8.0 7.9 8.1 8.1 8.3 8.3 8.0 7.8 8.0 7.9 8.6 8.3 8.3 8.5 8.2 7.8 8.1 8.2
6.5 6.8 7.2 7.1 6.9 6.9 7.1 7.2 7.0 7.2 7.1 7.7 7.5 7.6 7.6 7.4 7.4 7.6 7.7 7.2 7.2 7.2 7.5 7.8 7.8 8.1 8.3 8.3 8.1 8.3 8.3 8.3 7.9 7.6 7.5 7.8 7.8 8.4 8.4 8.4 8.6 8.5 8.2 8.0 8.4
6.3 6.6 7.0 7.0 6.7 6.9 7.1 6.8 7.1 7.0 7.5 7.3 7.6 7.6 8.0 7.7 7.6 7.5 7.6 7.7 7.6 7.6 7.4 7.4 7.9 8.1 8.7 8.7 8.8 8.7 8.6 8.1 7.5 6.9 7.0 7.9 7.6 8.6 8.2 8.4 8.6 8.7 8.3 8.3 8.4
6.1 6.4 6.8 6.9 6.8 6.9 7.0 6.9 7.0 7.3 7.1 7.0 7.2 7.4 7.7 7.8 7.8 7.6 7.4 7.5 7.9 7.7 7.6 8.1 8.8 8.9 9.1 9.0 9.1 9.1 8.9 8.9 7.4 6.4 7.3 7.7 7.7 8.0 8.4 8.5 8.7 8.7 8.7 8.8 9.1
6.0 6.2 6.7 6.8 6.9 6.8 6.9 6.9 7.5 7.2 7.0 7.2 7.3 7.5 7.5 7.9 8.0 8.0 8.0 8.1 8.2 8.0 7.8 7.9 8.4 8.8 8.9 9.0 9.0 9.2 9.1 9.0 8.5 7.5 7.3 7.7 8.0 8.1 8.6 8.7 8.7 8.9 8.9 9.1 9.3
6.0 6.3 6.6 6.9 6.8 6.8 6.9 7.1 7.3 7.0 6.9 7.4 7.4 7.3 7.6 7.7 7.9 8.0 8.1 8.3 8.3 7.8 7.7 7.6 8.1 8.9 8.9 9.2 9.2 9.1 9.1 9.0 8.7 6.8 7.4 7.4 8.1 8.4 8.3 8.6 8.7 8.8 9.1 9.3 9.4
6.1 6.4 6.7 6.9 6.8 6.8 6.8 7.2 7.0 7.1 7.0 7.1 7.1 7.1 7.6 7.9 7.9 8.1 8.2 8.2 8.1 8.0 7.8 7.8 7.8 8.8 9.0 9.2 9.1 9.2 9.0 9.1 8.9 8.4 6.6 6.3 7.8 8.4 8.3 8.3 8.5 8.9 9.4 9.3 9.2
6.1 6.4 6.8 6.9 6.7 6.7 7.0 7.2 7.1 7.1 7.1 7.0 7.1 6.9 7.4 7.6 8.1 8.0 8.2 8.3 8.2 7.9 7.9 8.2 8.0 8.3 8.9 9.1 9.2 9.3 9.2 9.1 9.1 8.3 8.0 7.7 7.8 8.4 8.4 8.6 8.8 9.0 8.8 8.7 8.6
6.2 6.6 6.8 6.9 6.8 6.9 7.1 7.2 7.4 7.2 7.1 7.3 7.1 7.4 7.6 7.6 7.9 8.2 8.3 8.1 7.9 8.1 8.1 8.2 8.1 8.4 9.1 9.2 9.1 9.1 9.2 9.1 9.2 8.7 8.1 7.6 7.7 7.9 8.1 8.3 8.5 8.5 8.4 8.4 8.6
6.3 6.6 6.7 6.9 7.0 6.9 7.2 7.4 7.2 7.4 7.3 7.0 7.5 7.4 7.8 8.0 7.9 7.9 8.1 7.9 7.6 7.6 7.5 8.4 8.3 8.2 8.4 8.6 8.6 8.9 9.0 9.1 9.1 8.9 8.6 8.7 8.7 8.2 8.0 8.2 8.2 8.2 8.3 8.4 8.3
6.2 6.6 6.9 7.2 7.1 7.2 7.2 7.1 7.4 7.4 7.4 7.2 7.5 7.5 7.7 7.8 7.8 7.6 7.5 7.3 7.1 7.4 7.4 8.0 8.8 8.8 8.6 8.8 8.8 8.9 9.1 9.1 9.1 9.2 9.2 9.1 8.9 8.3 7.7 7.8 8.1 8.1 8.1 7.9 7.9
6.3 6.7 7.2 7.4 7.3 7.2 7.0 7.3 7.5 7.4 7.4 7.3 7.6 7.9 8.2 7.8 7.8 8.2 7.8 7.5 7.2 7.9 8.2 8.7 8.5 8.6 8.9 8.5 8.8 9.0 9.0 9.0 9.1 9.0 8.8 8.9 8.1 7.5 7.4 7.9 7.9 7.9 7.8 7.8 7.8
6.3 6.8 7.4 7.2 7.1 7.2 7.3 7.7 7.6 7.7 7.2 7.9 7.9 7.6 7.5 8.3 8.3 8.0 8.4 8.1 8.0 8.5 8.7 8.4 8.4 8.2 8.4 8.7 8.5 8.8 8.8 8.7 8.9 8.9 8.7 8.6 8.2 8.1 8.0 7.9 7.8 7.6 7.7 7.4 7.4
Wind_Speed
15 15 15 15 15 15 16 16 16 16 17 20 20 19 18 19 20 3 5 5 4 5 5 1 3 2 4 3 3 2 4 3 6 6 4 5 4 2 4 10 2 4 6 7 18
14 15 16 15 15 16 16 16 16 16 18 20 20 18 18 18 3 4 9 5 3 7 1 2 3 5 3 1 2 3 3 4 3 4 7 3 5 8 5 4 3 4 12 18 18
15 15 16 16 16 16 16 16 16 17 18 19 20 18 18 13 4 3 1 8 10 5 1 3 4 1 4 1 3 1 2 4 3 9 6 5 4 3 10 2 5 9 17 17 16
15 15 16 16 16 16 17 17 18 18 18 19 19 19 21 2 2 4 9 12 10 4 2 3 3 2 3 2 1 4 2 3 6 7 8 7 6 5 3 2 10 16 20 15 14
16 16 16 17 17 17 18 18 18 18 18 18 17 18 5 4 7 3 7 8 4 2 4 2 3 3 2 2 4 3 3 9 13 6 9 6 2 4 5 9 16 17 16 16 14
17 17 17 17 18 18 19 20 19 19 18 17 15 16 2 4 1 7 6 4 2 1 2 2 2 3 3 2 3 3 2 7 7 7 6 5 3 3 3 11 17 17 15 14 14
17 17 18 18 18 20 21 21 21 19 18 16 13 4 1 11 3 3 6 3 0 1 1 1 5 2 3 2 2 1 2 1 2 3 4 3 4 2 7 11 15 15 14 14 15
17 17 18 19 19 21 23 23 22 19 15 13 9 3 6 2 2 2 3 2 4 3 4 1 5 6 2 3 2 1 4 5 3 3 1 6 5 2 7 11 10 11 13 15 16
17 18 18 19 20 23 24 26 21 14 8 2 1 1 9 6 2 2 5 1 4 3 6 3 3 3 1 3 4 7 1 1 7 4 4 3 2 5 7 7 8 10 10 10 11
16 17 18 19 19 22 28 21 1 2 2 3 3 3 5 3 3 5 2 5 5 4 4 6 5 3 2 3 2 3 1 3 4 2 3 3 3 5 9 8 9 8 8 8 10
17 17 17 18 18 19 13 3 3 1 2 8 5 3 4 7 3 2 6 5 3 5 1 4 1 6 9 7 5 4 1 4 3 5 3 5 3 8 8 5 8 7 8 9 12
16 16 16 18 17 18 4 2 1 1 7 9 8 7 4 3 4 3 10 6 4 3 2 4 6 7 6 5 1 2 3 5 8 7 6 3 4 6 9 13 13 10 11 13 12
15 15 16 17 19 6 2 4 5 4 1 7 5 4 4 7 4 5 7 4 2 5 6 5 5 3 1 1 2 3 5 5 6 3 4 4 5 3 5 6 6 9 9 12 13
14 14 14 19 5 3 4 2 8 4 4 6 4 6 6 7 4 7 6 6 1 6 1 5 4 4 4 6 6 3 9 7 5 4 3 2 3 5 5 7 8 12 11 13 13
13 12 11 7 5 2 1 8 6 2 1 2 3 2 5 11 3 3 3 4 7 6 3 4 7 7 7 8 8 7 4 7 3 4 2 1 3 6 1 6 10 11 12 13 13
13 10 9 1 2 6 10 6 2 5 5 4 2 5 5 3 2 3 4 2 3 5 4 6 2 4 8 5 8 4 6 7 5 3 2 2 4 5 5 9 6 6 10 12 9
12 9 4 2 3 8 5 3 5 3 4 5 2 2 4 4 3 4 5 6 5 2 2 4 5 4 5 2 3 6 5 3 3 2 5 4 4 7 6 7 8 9 10 10 9
11 8 5 6 2 8 3 4 3 3 5 4 2 0 5 4 4 3 5 5 3 4 2 0 5 4 4 4 6 6 8 5 6 4 3 2 4 3 6 9 7 3 7 7 7
8 1 3 4 17 1 5 3 6 5 3 4 5 4 3 0 2 4 6 4 5 5 6 2 5 5 4 2 5 3 3 4 7 3 2 2 6 6 9 10 8 8 9 10 8
1 1 4 5 16 4 4 6 3 3 1 3 2 2 4 4 7 6 6 2 1 2 3 3 4 3 5 2 3 3 5 3 3 4 3 4 4 3 10 10 9 9 7 6 6
1 2 3 4 3 5 3 6 4 3 3 4 3 4 3 4 5 5 8 4 6 7 6 4 3 6 2 2 5 1 1 6 5 3 5 3 5 5 7 7 4 6 7 7 10
1 1 3 1 4 2 4 6 3 2 2 4 5 7 4 4 2 4 8 4 7 9 8 5 4 3 8 2 2 2 3 5 5 3 1 3 4 4 3 5 3 6 7 8 9
2 1 2 2 4 1 3 3 2 1 4 3 4 2 3 3 1 3 2 4 9 7 5 7 1 3 6 5 2 5 3 5 5 4 4 5 4 1 6 6 7 8 8 8 9
2 3 3 3 1 4 4 3 2 3 5 3 9 1 2 3 2 1 2 1 8 4 2 7 3 4 5 5 2 1 3 4 4 4 5 5 6 5 3 6 6 6 5 6 6
1 2 3 4 3 3 2 2 2 4 3 8 4 4 7 4 5 6 6 2 5 8 4 4 2 4 5 5 2 2 4 1 1 2 4 4 9 6 5 4 3 4 4 7 7
1 2 2 2 1 6 4 6 9 3 4 4 4 10 14 8 9 8 6 3 5 5 5 6 1 4 3 3 3 3 5 5 5 4 5 7 5 4 4 5 4 6 6 6 4
2 2 3 1 2 5 6 8 10 7 10 10 8 4 11 15 8 6 4 3 3 6 5 5 5 2 4 2 1 3 5 1 3 2 6 4 6 6 5 6 6 6 5 7 6
Wind_Direction
341 340 340 340 339 336 333 332 330 326 322 318 318 319 320 318 313 154 242 199 184 179 162 224 184 180 50 50 29 58 52 10 15 27 298 165 111 106 101 137 215 148 138 147 135
342 339 338 337 336 334 331 330 327 324 319 318 317 319 319 324 304 248 250 148 140 171 177 122 95 123 87 76 32 82 92 12 321 339 342 212 134 156 114 139 59 50 98 119 134
339 339 337 334 333 331 328 326 323 320 317 317 317 318 317 321 318 256 52 166 197 198 107 106 107 118 99 98 38 143 89 309 262 314 323 154 132 139 122 216 196 155 134 136 144
337 338 334 332 331 328 325 322 318 315 315 315 316 317 315 253 253 358 125 162 173 195 159 133 83 66 66 97 88 102 311 358 291 338 334 161 139 105 113 246 139 146 142 144 158
336 336 332 330 328 326 321 317 313 311 312 311 314 320 322 343 254 125 144 146 147 190 124 111 72 129 145 130 142 89 323 318 306 314 4 76 85 117 58 102 122 136 146 158 169
334 333 331 327 326 324 320 314 310 308 308 307 313 317 310 301 340 149 149 133 148 201 197 162 171 169 98 52 40 97 240 289 310 328 38 104 79 75 95 127 131 143 161 172 180
334 333 330 325 325 322 319 312 309 305 303 302 311 299 238 239 24 151 164 180 269 267 296 269 149 176 173 109 312 353 327 265 341 16 80 109 19 5 149 145 148 160 168 184 199
332 334 328 324 324 321 317 311 305 297 293 291 292 283 250 243 359 170 127 48 73 303 318 58 114 107 42 195 21 53 56 26 315 138 260 90 260 206 165 151 161 172 181 183 194
333 332 329 325 325 322 318 308 300 286 243 276 270 310 271 329 279 225 144 90 116 28 19 93 42 82 47 56 19 26 17 17 320 203 125 142 259 190 176 170 174 186 200 209 201
332 330 329 325 327 325 320 306 294 70 194 194 259 341 274 304 208 127 130 75 67 131 353 38 38 69 60 77 170 206 230 245 237 298 154 174 215 194 191 183 193 199 207 216 218
329 329 328 323 326 330 341 18 8 310 237 202 189 230 281 308 14 88 126 77 87 55 229 355 55 229 206 183 109 106 216 289 258 255 207 209 192 212 194 198 215 209 221 226 226
328 328 326 321 322 319 303 87 87 170 304 241 243 277 286 85 340 52 136 153 183 167 88 5 253 210 75 139 168 326 310 278 282 252 155 153 243 226 184 220 217 208 221 232 239
327 326 326 319 317 304 260 220 344 335 217 294 195 198 180 125 233 248 136 118 140 171 190 170 283 326 75 253 233 227 209 209 230 57 55 109 319 209 232 225 222 229 216 227 231
324 326 328 321 308 311 257 330 331 218 38 269 242 257 118 123 293 197 164 133 186 244 176 211 225 205 196 262 185 262 211 195 167 110 201 63 260 282 226 227 220 236 219 220 217
323 324 325 340 299 226 345 332 298 53 349 242 202 66 171 137 206 196 207 92 167 182 118 269 192 181 215 226 156 223 67 121 99 102 107 13 76 268 81 235 242 229 227 232 207
322 320 320 230 242 256 320 325 76 47 253 347 123 136 137 82 214 142 171 110 146 155 222 264 278 214 209 229 181 130 63 47 63 63 12 309 130 283 186 218 243 241 228 235 210
320 305 273 278 235 322 314 63 49 157 314 321 350 164 166 148 207 139 161 192 200 171 37 231 218 244 195 143 43 79 63 22 336 341 224 316 114 249 275 246 229 241 253 227 226
314 296 244 239 276 336 57 59 175 227 265 330 76 187 170 148 219 142 158 176 241 119 0 18 327 193 186 196 165 175 156 160 205 202 257 55 230 282 310 310 230 205 279 287 255
321 307 265 254 209 271 78 88 210 214 206 343 320 47 325 185 174 152 201 195 151 177 178 159 278 305 222 206 134 161 163 170 102 25 74 252 293 301 350 0 4 38 30 2 353
359 332 259 133 162 101 82 207 241 228 112 73 334 139 167 222 174 180 178 240 208 219 133 204 314 233 297 158 68 162 154 75 18 137 221 295 270 235 329 314 343 7 33 14 31
17 47 315 159 218 60 166 217 257 238 125 178 236 299 231 181 206 198 182 171 186 172 175 138 118 290 315 141 156 51 344 51 108 103 154 166 266 211 257 283 348 353 27 30 43
98 71 318 174 73 55 160 197 255 299 157 254 193 236 234 179 202 230 200 223 166 151 165 193 151 264 244 222 178 159 140 137 119 209 78 138 266 329 105 63 77 56 29 27 41
106 142 310 42 130 255 266 260 261 71 257 339 259 112 293 282 331 181 204 253 171 159 164 172 168 329 351 1 52 85 91 98 112 102 186 136 252 32 74 56 33 52 34 28 34
103 81 343 44 118 156 165 200 260 236 250 134 268 259 178 258 280 87 279 301 189 162 198 113 110 151 190 211 203 245 134 172 120 111 170 210 170 209 133 108 55 54 73 67 56
51 232 197 198 275 202 60 201 135 259 232 200 279 261 199 263 169 214 225 266 143 173 185 151 152 189 238 248 218 348 22 24 303 125 154 196 158 190 172 136 109 106 82 70 56
136 125 2 132 95 138 155 213 206 222 209 269 175 324 307 217 215 204 156 196 198 155 206 13 187 186 321 65 141 85 36 65 66 115 63 121 110 144 122 107 117 141 128 112 128
315 301 118 299 90 121 209 208 226 98 286 259 193 190 263 235 226 172 185 144 164 159 181 135 157 94 263 4 204 345 342 37 107 56 143 146 197 151 127 149 159 164 163 166 167